[[{"header":{"parameterUnit":"m.s-1","parameterCategory":1,"la1":30.2991,"la2":30.254,"lo1":-89.0895,"lo2":-89.0444,"dy":0.0017,"dx":0.0017,"nx":28,"ny":28,"refTime":"2025-08-05T21:00:00:Z","depth":0,"parameterNumber":2,"parameterNumberName":"U-component_of_WINDS"},"data":[0,0,0,0,0,0,0,0,0,0,0,0,0,0,0,0,0,0,0,0,0,0,0,0,0,0,0,0,0,0,0,0,0,0,0,0,0,0,0,0,0,0,0,0,0,0,0,0,0,0,0,0,0,0,0,0,0,0,-0.1997,-0.1998,0,-0.206,-0.2061,-0.2062,-0.2084,-0.2084,-0.2083,-0.2083,-0.2147,-0.2148,-0.215,0,0,0,0,0,0,0,0,0,0,0,0,0,-0.1896,-0.1897,-0.1997,-0.1998,-0.1999,-0.206,-0.2061,-0.2062,-0.2084,-0.2084,-0.2083,-0.2083,-0.2146,-0.2148,-0.215,0,0,0,0,0,0,0,0,0,0,0,0,0,-0.1947,-0.1898,-0.1997,-0.2017,-0.202,-0.206,-0.2061,-0.2062,-0.2084,-0.2084,-0.2083,-0.2083,-0.2145,-0.2148,-0.2151,-0.2175,0,0,-0.2159,-0.2161,0,0,0,0,0,0,0,0,-0.1944,-0.1951,-0.2013,-0.2016,-0.2019,-0.2064,-0.2048,-0.21,-0.2084,-0.206,-0.2083,-0.2083,-0.2119,-0.2124,-0.2137,-0.2178,-0.2181,-0.216,-0.2161,-0.2163,-0.2163,0,0,0,0,0,0,0,-0.1941,-0.1948,-0.2022,-0.2014,-0.2018,-0.2023,-0.203,-0.2058,-0.209,-0.2062,-0.2063,-0.2071,-0.2121,-0.2134,-0.2138,-0.2182,-0.216,-0.2162,-0.2164,-0.2165,-0.2247,-0.2247,0,0,0,0,0,0,-0.1934,-0.1945,-0.202,-0.2024,-0.198,-0.2025,-0.2033,-0.205,-0.209,-0.2096,-0.2071,-0.2071,-0.2129,-0.2135,-0.2141,-0.2173,-0.2163,-0.2165,-0.2167,-0.2247,-0.2247,-0.2248,0,0,0,0,0,0,-0.1932,-0.194,-0.2018,-0.1985,-0.1995,-0.2027,-0.2046,-0.2051,-0.2065,-0.2097,-0.2103,-0.2079,-0.2129,-0.2137,-0.2167,-0.2175,-0.2167,-0.2169,-0.2246,-0.2247,-0.2247,-0.2236,0,0,0,0,0,0,-0.1929,-0.1939,-0.1949,-0.1985,-0.1997,-0.2043,-0.2046,-0.2053,-0.2069,-0.2071,-0.2106,-0.2112,-0.213,-0.2162,-0.2169,-0.2179,-0.2171,-0.2245,-0.2246,-0.2247,-0.2236,-0.2236,-0.2236,0,0,0,0,0,-0.1925,-0.1943,-0.1949,-0.1958,-0.201,-0.2043,-0.205,-0.207,-0.207,-0.208,-0.2101,-0.211,-0.2173,-0.2165,-0.2173,-0.2184,-0.2245,-0.2246,-0.2247,-0.2235,-0.2236,-0.2236,0,0,0,0,0,0,-0.1906,-0.1948,-0.1956,-0.1986,-0.2011,-0.2047,-0.206,-0.207,-0.2095,-0.2096,-0.212,-0.2128,-0.2156,-0.2173,-0.2163,-0.221,-0.2209,-0.2212,-0.2198,-0.2199,-0.2199,-0.2194,-0.2174,0,0,0,0,0,-0.1906,-0.1929,-0.1964,-0.1988,-0.2,-0.2028,-0.2043,-0.2057,-0.2083,-0.2094,-0.2117,-0.2142,-0.2168,-0.2184,-0.2209,-0.2238,-0.2246,-0.2249,-0.225,-0.225,-0.2252,-0.2269,-0.2271,-0.2251,-0.2251,-0.2251,0,0,-0.1905,-0.193,-0.1944,-0.1985,-0.2006,-0.203,-0.2036,-0.2061,-0.2079,-0.2098,-0.2128,-0.2146,-0.2175,-0.2205,-0.2219,-0.222,-0.2259,-0.2251,-0.2251,-0.2253,-0.227,-0.2272,-0.2274,-0.2252,-0.2252,-0.2252,0,0,-0.1915,-0.1937,-0.1959,-0.198,-0.2012,-0.2031,-0.2036,-0.2071,-0.2083,-0.2114,-0.2128,-0.215,-0.2193,-0.2214,-0.223,-0.225,-0.2259,-0.2257,-0.2259,-0.2276,-0.2277,-0.2279,-0.2286,-0.2289,-0.2259,-0.2259,-0.2259,0,-0.191,-0.1947,-0.1969,-0.1994,-0.2012,-0.203,-0.2052,-0.2072,-0.211,-0.2122,-0.2122,-0.2177,-0.2198,-0.2233,-0.2238,-0.225,-0.2257,-0.2253,-0.2275,-0.2277,-0.2279,-0.2286,-0.2289,-0.2259,-0.2259,-0.2259,-0.2259,0,-0.1939,-0.1965,-0.1979,-0.2016,-0.2035,-0.2059,-0.2084,-0.2101,-0.2113,-0.2132,-0.2163,-0.2189,-0.222,-0.223,-0.2241,-0.2267,-0.2266,-0.2271,-0.2271,-0.228,-0.2287,-0.229,-0.2258,-0.2258,-0.2258,-0.2258,0,0,-0.194,-0.199,-0.1994,-0.2012,-0.2049,-0.2069,-0.2093,-0.2124,-0.2138,-0.2164,-0.2185,-0.2221,-0.2226,-0.2244,-0.2259,-0.2273,-0.2288,-0.2276,-0.2277,-0.2278,-0.2318,-0.2315,-0.2317,-0.2294,-0.2295,-0.2295,-0.2315,0,-0.1956,-0.2001,-0.2021,-0.2057,-0.2081,-0.2099,-0.212,-0.2145,-0.2163,-0.2186,-0.2205,-0.2231,-0.2235,-0.2246,-0.2261,-0.2283,-0.2296,-0.2281,-0.2314,-0.2315,-0.2307,-0.2321,-0.2318,-0.2336,-0.2318,-0.2319,-0.2319,0,-0.198,-0.2007,-0.2045,-0.2079,-0.209,-0.2109,-0.214,-0.2161,-0.219,-0.2202,-0.2223,-0.2237,-0.2263,-0.2261,-0.2298,-0.2288,-0.2303,-0.2315,-0.2316,-0.2321,-0.2318,-0.2326,-0.2342,-0.2345,-0.2324,-0.2324,-0.2323,0,-0.1977,-0.2022,-0.2051,-0.2066,-0.2107,-0.212,-0.2137,-0.2165,-0.2183,-0.2209,-0.2221,-0.225,-0.2266,-0.2288,-0.231,-0.2306,-0.2345,-0.2344,-0.2356,-0.2355,-0.2363,-0.2362,-0.2382,-0.2372,-0.2372,-0.2372,-0.2371,0,-0.1993,-0.2016,-0.2051,-0.2068,-0.2095,-0.2118,-0.2143,-0.2162,-0.2188,-0.2209,-0.2226,-0.2246,-0.2273,-0.2297,-0.2314,-0.2342,-0.2349,-0.236,-0.2364,-0.2358,-0.2357,-0.2369,-0.2368,-0.2372,-0.2372,-0.2372,-0.2372,0,-0.1994,-0.2019,-0.2051,-0.2088,-0.2097,-0.2115,-0.2146,-0.2164,-0.2183,-0.2211,-0.2218,-0.2248,-0.2277,-0.23,-0.2338,-0.2349,-0.2379,-0.2384,-0.2369,-0.2372,-0.2382,-0.2381,-0.2409,-0.2415,-0.2401,-0.2401,-0.2401,0,-0.2003,-0.2021,-0.2059,-0.2076,-0.2093,-0.2119,-0.2137,-0.2161,-0.2179,-0.2214,-0.2228,-0.2258,-0.2283,-0.2328,-0.2352,-0.2381,-0.2387,-0.2395,-0.2392,-0.2386,-0.2388,-0.2387,-0.2389,-0.2396,-0.2396,-0.2396,-0.2396,0,-0.2015,-0.2027,-0.2053,-0.2083,-0.2105,-0.2129,-0.2155,-0.2167,-0.2196,-0.2215,-0.2245,-0.2265,-0.2303,-0.2333,-0.2365,-0.2383,-0.2394,-0.2397,-0.2401,-0.2396,-0.2387,-0.2392,-0.2371,-0.2396,-0.2396,-0.2396,-0.2396,-0.2396,-0.2021,-0.2038,-0.2068,-0.2097,-0.2119,-0.2142,-0.2161,-0.2183,-0.2208,-0.2242,-0.2254,-0.2285,-0.2314,-0.2358,-0.2376,-0.24,-0.2402,-0.2407,-0.2409,-0.241,-0.241,-0.2383,-0.2406,-0.2406,-0.2406,-0.2406,-0.2406,0,-0.2035,-0.2056,-0.2081,-0.2117,-0.2139,-0.2149,-0.2177,-0.2195,-0.2222,-0.2248,-0.2273,-0.2308,-0.2337,-0.2364,-0.2395,-0.2409,-0.2415,-0.2416,-0.2416,-0.242,-0.2407,-0.24,-0.2411,-0.2411,-0.2411,-0.2411,-0.2411,-0.2411,-0.2045,-0.2075,-0.209,-0.2131,-0.2151,-0.2182,-0.2197,-0.2219,-0.224,-0.2278,-0.2303,-0.2321,-0.2348,-0.238,-0.2408,-0.2415,-0.2426,-0.2425,-0.2434,-0.2421,-0.2421,-0.242,-0.2414,-0.2427,-0.2427,-0.2445,-0.2446,-0.2446]},{"header":{"parameterUnit":"m.s-1","parameterCategory":1,"la1":30.2991,"la2":30.254,"lo1":-89.0895,"lo2":-89.0444,"dy":0.0017,"dx":0.0017,"nx":28,"ny":28,"refTime":"2025-08-05T21:00:00:Z","depth":0,"parameterNumber":3,"parameterNumberName":"V-component_of_WINDS"},"data":[0,0,0,0,0,0,0,0,0,0,0,0,0,0,0,0,0,0,0,0,0,0,0,0,0,0,0,0,0,0,0,0,0,0,0,0,0,0,0,0,0,0,0,0,0,0,0,0,0,0,0,0,0,0,0,0,0,0,-0.8617,-0.8617,0,-0.8573,-0.8573,-0.8572,-0.8542,-0.8542,-0.8542,-0.8542,-0.8496,-0.8495,-0.8494,0,0,0,0,0,0,0,0,0,0,0,0,0,-0.8675,-0.8674,-0.8617,-0.8617,-0.8616,-0.8573,-0.8573,-0.8572,-0.8542,-0.8542,-0.8542,-0.8542,-0.8496,-0.8495,-0.8494,0,0,0,0,0,0,0,0,0,0,0,0,0,-0.8643,-0.8674,-0.8617,-0.8596,-0.8594,-0.8573,-0.8573,-0.8572,-0.8542,-0.8542,-0.8542,-0.8542,-0.8497,-0.8495,-0.8494,-0.849,0,0,-0.8489,-0.8488,0,0,0,0,0,0,0,0,-0.8645,-0.864,-0.86,-0.8598,-0.8595,-0.8563,-0.8576,-0.8545,-0.8543,-0.8562,-0.8542,-0.8541,-0.8518,-0.8515,-0.8507,-0.8488,-0.8486,-0.8489,-0.8488,-0.8487,-0.8487,0,0,0,0,0,0,0,-0.8647,-0.8642,-0.86,-0.8599,-0.8596,-0.8589,-0.8584,-0.857,-0.8542,-0.856,-0.8558,-0.8553,-0.8517,-0.8509,-0.8506,-0.8486,-0.8489,-0.8488,-0.8487,-0.8486,-0.8462,-0.8463,0,0,0,0,0,0,-0.8652,-0.8644,-0.8601,-0.8598,-0.8619,-0.8588,-0.8582,-0.8573,-0.8543,-0.8538,-0.8554,-0.8552,-0.8512,-0.8508,-0.8504,-0.8499,-0.8487,-0.8486,-0.8485,-0.8462,-0.8462,-0.8463,0,0,0,0,0,0,-0.8654,-0.8649,-0.8603,-0.8621,-0.8614,-0.8587,-0.8578,-0.8573,-0.8565,-0.8537,-0.8532,-0.855,-0.8511,-0.8507,-0.8494,-0.8497,-0.8485,-0.8484,-0.8462,-0.8462,-0.8463,-0.8489,0,0,0,0,0,0,-0.8656,-0.865,-0.8648,-0.8621,-0.8613,-0.8594,-0.8578,-0.8572,-0.8562,-0.856,-0.8533,-0.8529,-0.8511,-0.8497,-0.8493,-0.8495,-0.8483,-0.8461,-0.8462,-0.8462,-0.8488,-0.849,-0.8492,0,0,0,0,0,-0.8658,-0.8657,-0.8648,-0.8643,-0.8611,-0.8594,-0.859,-0.857,-0.8563,-0.8561,-0.8544,-0.8529,-0.8498,-0.8496,-0.8491,-0.8493,-0.8461,-0.8462,-0.8462,-0.8487,-0.849,-0.8492,0,0,0,0,0,0,-0.8685,-0.8653,-0.8643,-0.8633,-0.8617,-0.8589,-0.8586,-0.8573,-0.8558,-0.8556,-0.8532,-0.8526,-0.8517,-0.8503,-0.8502,-0.8488,-0.8478,-0.8477,-0.8498,-0.85,-0.8503,-0.8506,-0.8481,0,0,0,0,0,-0.869,-0.8678,-0.8651,-0.8645,-0.8637,-0.8613,-0.8605,-0.8591,-0.8573,-0.8566,-0.8547,-0.853,-0.8516,-0.8507,-0.8493,-0.8485,-0.8479,-0.8484,-0.8487,-0.8489,-0.8489,-0.8485,-0.8487,-0.8465,-0.8465,-0.8465,0,0,-0.8699,-0.8681,-0.8675,-0.865,-0.8636,-0.8625,-0.8608,-0.8597,-0.8588,-0.8564,-0.8551,-0.8537,-0.8516,-0.8507,-0.8501,-0.8495,-0.8494,-0.8489,-0.8491,-0.849,-0.8486,-0.8488,-0.849,-0.8465,-0.8465,-0.8465,0,0,-0.8712,-0.8696,-0.869,-0.8676,-0.8654,-0.8639,-0.8637,-0.8612,-0.8602,-0.8589,-0.857,-0.856,-0.8536,-0.8522,-0.8512,-0.852,-0.8507,-0.8516,-0.8529,-0.8525,-0.8527,-0.8528,-0.8532,-0.8533,-0.8516,-0.8516,-0.8516,0,-0.8727,-0.871,-0.8688,-0.8679,-0.8669,-0.8646,-0.864,-0.8627,-0.8602,-0.8596,-0.8589,-0.856,-0.8544,-0.8531,-0.8533,-0.8525,-0.8523,-0.8519,-0.8528,-0.8529,-0.853,-0.8533,-0.8535,-0.8518,-0.8518,-0.8517,-0.8517,0,-0.873,-0.8718,-0.8716,-0.8693,-0.8682,-0.8674,-0.8652,-0.8644,-0.8631,-0.8615,-0.8603,-0.8583,-0.8565,-0.8561,-0.8548,-0.8546,-0.8543,-0.8533,-0.8521,-0.8534,-0.8537,-0.8538,-0.852,-0.8519,-0.8519,-0.8518,0,0,-0.8758,-0.8724,-0.8723,-0.8713,-0.8687,-0.8678,-0.8669,-0.8652,-0.8646,-0.8629,-0.8621,-0.8602,-0.8592,-0.8581,-0.8566,-0.8563,-0.8571,-0.8552,-0.8552,-0.8557,-0.8569,-0.8578,-0.858,-0.8562,-0.8562,-0.8562,-0.8571,0,-0.8767,-0.8751,-0.8732,-0.8722,-0.8711,-0.869,-0.8682,-0.8666,-0.8652,-0.8641,-0.8625,-0.8612,-0.86,-0.8593,-0.8588,-0.8571,-0.8573,-0.857,-0.8555,-0.8555,-0.8562,-0.8581,-0.859,-0.86,-0.8572,-0.8572,-0.8572,0,-0.8776,-0.8761,-0.8751,-0.8727,-0.8722,-0.8715,-0.8698,-0.8688,-0.8669,-0.8659,-0.8646,-0.8631,-0.862,-0.861,-0.8596,-0.8594,-0.8587,-0.8577,-0.8577,-0.8576,-0.8565,-0.8581,-0.8602,-0.8604,-0.8574,-0.8574,-0.8573,0,-0.8799,-0.8776,-0.8767,-0.8759,-0.8731,-0.8727,-0.8715,-0.8696,-0.8687,-0.8671,-0.8665,-0.8649,-0.864,-0.8628,-0.8608,-0.8602,-0.8596,-0.8584,-0.8588,-0.8589,-0.8588,-0.8589,-0.861,-0.8582,-0.8582,-0.8582,-0.8582,0,-0.8812,-0.8806,-0.8777,-0.8772,-0.8765,-0.8743,-0.8737,-0.8723,-0.8706,-0.8698,-0.8678,-0.867,-0.8644,-0.8633,-0.8618,-0.8609,-0.8605,-0.8596,-0.8593,-0.8599,-0.86,-0.8594,-0.8593,-0.8582,-0.8582,-0.8582,-0.8582,0,-0.8836,-0.8817,-0.8805,-0.878,-0.8774,-0.877,-0.8748,-0.8742,-0.8727,-0.8716,-0.8712,-0.8688,-0.8675,-0.8654,-0.8634,-0.8623,-0.8617,-0.861,-0.8624,-0.8622,-0.8627,-0.8627,-0.8646,-0.8647,-0.8618,-0.8618,-0.8619,0,-0.8846,-0.8842,-0.8816,-0.8809,-0.8798,-0.8787,-0.8778,-0.8756,-0.8748,-0.8726,-0.8723,-0.8708,-0.8695,-0.8674,-0.8655,-0.8639,-0.8632,-0.864,-0.863,-0.8637,-0.8633,-0.8634,-0.8634,-0.8643,-0.8643,-0.8643,-0.8644,0,-0.8867,-0.8857,-0.8845,-0.883,-0.8819,-0.8806,-0.8792,-0.8787,-0.8762,-0.8753,-0.8739,-0.8729,-0.8709,-0.8695,-0.8677,-0.8664,-0.865,-0.8647,-0.8647,-0.8654,-0.8662,-0.8659,-0.8631,-0.8647,-0.8646,-0.8646,-0.8646,-0.8646,-0.8885,-0.888,-0.8862,-0.8849,-0.8836,-0.8823,-0.8816,-0.8801,-0.8789,-0.8771,-0.8759,-0.8746,-0.8728,-0.8702,-0.8691,-0.868,-0.8674,-0.8674,-0.8674,-0.8675,-0.8677,-0.8663,-0.8677,-0.8677,-0.8676,-0.8676,-0.8676,0,-0.8905,-0.8892,-0.888,-0.8861,-0.8851,-0.8839,-0.8822,-0.8815,-0.8804,-0.8789,-0.8776,-0.8761,-0.8747,-0.8726,-0.8711,-0.8707,-0.87,-0.8703,-0.8704,-0.8701,-0.8684,-0.8685,-0.8709,-0.8709,-0.8709,-0.8709,-0.8709,-0.8709,-0.8914,-0.8906,-0.8894,-0.8879,-0.8866,-0.8854,-0.8846,-0.8834,-0.8822,-0.8806,-0.8794,-0.8781,-0.8764,-0.8747,-0.8733,-0.8728,-0.8723,-0.8729,-0.8722,-0.8706,-0.8703,-0.87,-0.8701,-0.8728,-0.8728,-0.874,-0.8741,-0.8741]}]]